Time,TemperatureF,DewpointF,PressureIn,WindDirection,WindDirectionDegrees,WindSpeedMPH,WindSpeedGustMPH,Humidity,HourlyPrecipIn,Conditions,Clouds,dailyrainin,SoftwareType,DateUTC
2013-01-15 00:12:00,46.9,47.0,30.03,NE,51,3.0,8.0,99,0.03,,,0.03,weatherlink.com 1.10,2013-01-15 05:12:00,
2013-01-15 00:27:00,46.6,46.0,30.01,ENE,59,10.0,10.0,99,0.02,,,0.03,weatherlink.com 1.10,2013-01-15 05:27:00,
2013-01-15 00:43:00,46.9,47.0,30.01,ENE,71,3.0,10.0,99,0.03,,,0.04,weatherlink.com 1.10,2013-01-15 05:43:00,
2013-01-15 00:57:00,46.7,47.0,30.03,ENE,59,3.0,6.0,99,0.03,,,0.05,weatherlink.com 1.10,2013-01-15 05:57:00,
2013-01-15 01:12:00,47.1,47.0,30.01,ENE,57,3.0,14.0,99,0.03,,,0.06,weatherlink.com 1.10,2013-01-15 06:12:00,
2013-01-15 01:27:00,47.1,47.0,30.02,ENE,61,2.0,7.0,99,0.03,,,0.06,weatherlink.com 1.10,2013-01-15 06:27:00,
2013-01-15 01:43:00,46.7,47.0,30.02,ENE,61,3.0,5.0,99,0.03,,,0.07,weatherlink.com 1.10,2013-01-15 06:43:00,
2013-01-15 01:58:00,46.9,47.0,30.02,ENE,68,2.0,5.0,99,0.03,,,0.08,weatherlink.com 1.10,2013-01-15 06:58:00,
2013-01-15 02:13:00,46.4,46.0,30.02,ENE,71,2.0,4.0,99,0.03,,,0.09,weatherlink.com 1.10,2013-01-15 07:13:00,
2013-01-15 02:28:00,45.9,46.0,30.01,ENE,71,2.0,3.0,99,0.03,,,0.09,weatherlink.com 1.10,2013-01-15 07:28:00,
2013-01-15 02:43:00,45.9,46.0,30.02,ENE,64,2.0,3.0,99,0.03,,,0.10,weatherlink.com 1.10,2013-01-15 07:43:00,
2013-01-15 02:58:00,45.8,46.0,30.00,ENE,63,3.0,4.0,99,0.03,,,0.11,weatherlink.com 1.10,2013-01-15 07:58:00,
2013-01-15 03:13:00,45.7,46.0,29.99,ENE,66,4.0,4.0,99,0.02,,,0.11,weatherlink.com 1.10,2013-01-15 08:13:00,
2013-01-15 03:28:00,45.7,46.0,29.98,East,90,5.0,5.0,99,0.03,,,0.12,weatherlink.com 1.10,2013-01-15 08:28:00,
2013-01-15 03:43:00,45.8,46.0,29.98,East,80,6.0,9.0,99,0.02,,,0.12,weatherlink.com 1.10,2013-01-15 08:43:00,
2013-01-15 03:58:00,45.5,45.0,29.97,ENE,67,3.0,6.0,99,0.02,,,0.13,weatherlink.com 1.10,2013-01-15 08:58:00,
2013-01-15 04:13:00,45.3,45.0,29.97,ENE,71,3.0,5.0,99,0.03,,,0.14,weatherlink.com 1.10,2013-01-15 09:13:00,
2013-01-15 04:28:00,44.8,45.0,29.97,ENE,68,4.0,5.0,99,0.02,,,0.14,weatherlink.com 1.10,2013-01-15 09:28:00,
2013-01-15 04:43:00,44.5,44.0,29.96,ENE,67,3.0,7.0,99,0.03,,,0.15,weatherlink.com 1.10,2013-01-15 09:43:00,
2013-01-15 04:58:00,44.1,44.0,29.97,ENE,70,4.0,5.0,99,0.02,,,0.15,weatherlink.com 1.10,2013-01-15 09:58:00,
2013-01-15 05:13:00,44.1,44.0,29.96,ENE,59,4.0,7.0,99,0.02,,,0.16,weatherlink.com 1.10,2013-01-15 10:13:00,
2013-01-15 05:43:00,44.3,44.0,29.95,ENE,69,3.0,5.0,99,0.02,,,0.17,weatherlink.com 1.10,2013-01-15 10:43:00,
2013-01-15 05:58:00,44.3,44.0,29.96,ENE,64,3.0,5.0,99,0.02,,,0.17,weatherlink.com 1.10,2013-01-15 10:58:00,
2013-01-15 06:28:00,43.8,44.0,29.98,ENE,67,4.0,5.0,99,0.02,,,0.18,weatherlink.com 1.10,2013-01-15 11:28:00,
2013-01-15 06:43:00,43.9,44.0,29.98,ENE,70,4.0,5.0,99,0.02,,,0.19,weatherlink.com 1.10,2013-01-15 11:43:00,
2013-01-15 06:58:00,44.1,44.0,30.00,ENE,77,1.0,4.0,99,0.02,,,0.19,weatherlink.com 1.10,2013-01-15 11:58:00,
2013-01-15 07:13:00,44.7,45.0,30.01,ENE,68,1.0,3.0,99,0.02,,,0.20,weatherlink.com 1.10,2013-01-15 12:13:00,
2013-01-15 07:28:00,44.8,45.0,30.00,ENE,76,2.0,3.0,99,0.02,,,0.20,weatherlink.com 1.10,2013-01-15 12:28:00,
2013-01-15 07:43:00,44.6,44.0,30.00,ENE,76,3.0,4.0,99,0.02,,,0.21,weatherlink.com 1.10,2013-01-15 12:43:00,
2013-01-15 07:58:00,44.3,44.0,30.01,ENE,74,4.0,4.0,99,0.02,,,0.21,weatherlink.com 1.10,2013-01-15 12:58:00,
2013-01-15 08:13:00,44.1,44.0,30.02,ENE,74,4.0,5.0,99,0.02,,,0.22,weatherlink.com 1.10,2013-01-15 13:13:00,
2013-01-15 08:28:00,44.1,44.0,30.02,ENE,64,3.0,5.0,99,0.02,,,0.22,weatherlink.com 1.10,2013-01-15 13:28:00,
2013-01-15 08:43:00,44.0,44.0,30.02,ENE,67,5.0,5.0,99,0.02,,,0.23,weatherlink.com 1.10,2013-01-15 13:43:00,
2013-01-15 08:58:00,44.4,44.0,30.02,ENE,70,5.0,6.0,99,0.02,,,0.23,weatherlink.com 1.10,2013-01-15 13:58:00,
2013-01-15 09:13:00,44.5,44.0,30.03,ENE,70,3.0,5.0,99,0.01,,,0.23,weatherlink.com 1.10,2013-01-15 14:13:00,
2013-01-15 09:28:00,44.4,44.0,30.03,ENE,68,4.0,5.0,99,0.02,,,0.24,weatherlink.com 1.10,2013-01-15 14:28:00,
2013-01-15 09:43:00,44.3,44.0,30.03,ENE,60,2.0,5.0,99,0.01,,,0.24,weatherlink.com 1.10,2013-01-15 14:43:00,
2013-01-15 09:58:00,44.3,44.0,30.03,ENE,71,3.0,4.0,99,0.02,,,0.25,weatherlink.com 1.10,2013-01-15 14:58:00,
2013-01-15 10:13:00,44.2,44.0,30.04,ENE,61,2.0,4.0,99,0.02,,,0.25,weatherlink.com 1.10,2013-01-15 15:13:00,
2013-01-15 10:28:00,44.2,44.0,30.03,ENE,64,3.0,7.0,99,0.02,,,0.26,weatherlink.com 1.10,2013-01-15 15:28:00,
2013-01-15 10:43:00,44.3,44.0,30.01,ENE,69,4.0,7.0,99,0.02,,,0.26,weatherlink.com 1.10,2013-01-15 15:43:00,
2013-01-15 10:58:00,44.3,44.0,30.01,NE,40,4.0,7.0,99,0.02,,,0.27,weatherlink.com 1.10,2013-01-15 15:58:00,
2013-01-15 11:13:00,44.3,44.0,30.02,ENE,65,4.0,7.0,99,0.02,,,0.27,weatherlink.com 1.10,2013-01-15 16:13:00,
2013-01-15 11:28:00,43.7,44.0,30.00,ENE,65,3.0,8.0,99,0.02,,,0.28,weatherlink.com 1.10,2013-01-15 16:28:00,
2013-01-15 11:43:00,43.8,44.0,30.00,ENE,63,4.0,5.0,99,0.02,,,0.28,weatherlink.com 1.10,2013-01-15 16:43:00,
2013-01-15 11:58:00,43.6,43.0,29.99,ENE,65,5.0,5.0,99,0.02,,,0.29,weatherlink.com 1.10,2013-01-15 16:58:00,
2013-01-15 12:13:00,43.5,43.0,29.98,ENE,65,5.0,7.0,99,0.02,,,0.29,weatherlink.com 1.10,2013-01-15 17:13:00,
2013-01-15 12:28:00,43.4,43.0,29.97,ENE,59,5.0,8.0,99,0.02,,,0.30,weatherlink.com 1.10,2013-01-15 17:28:00,
2013-01-15 12:43:00,43.4,43.0,29.97,ENE,66,7.0,7.0,99,0.02,,,0.30,weatherlink.com 1.10,2013-01-15 17:43:00,
2013-01-15 12:58:00,42.9,43.0,29.97,East,87,6.0,8.0,99,0.02,,,0.31,weatherlink.com 1.10,2013-01-15 17:58:00,
2013-01-15 13:13:00,42.8,43.0,29.96,ENE,69,8.0,8.0,99,0.02,,,0.31,weatherlink.com 1.10,2013-01-15 18:13:00,
2013-01-15 13:28:00,42.8,43.0,29.96,ENE,65,5.0,7.0,99,0.01,,,0.31,weatherlink.com 1.10,2013-01-15 18:28:00,
2013-01-15 13:43:00,42.7,43.0,29.96,ENE,65,5.0,7.0,99,0.02,,,0.32,weatherlink.com 1.10,2013-01-15 18:43:00,
2013-01-15 13:58:00,42.8,43.0,29.95,ENE,65,4.0,8.0,99,0.01,,,0.32,weatherlink.com 1.10,2013-01-15 18:58:00,
2013-01-15 14:13:00,42.8,43.0,29.95,ENE,67,5.0,8.0,99,0.02,,,0.33,weatherlink.com 1.10,2013-01-15 19:13:00,
2013-01-15 14:28:00,42.4,42.0,29.95,ENE,69,5.0,8.0,99,0.02,,,0.33,weatherlink.com 1.10,2013-01-15 19:28:00,
2013-01-15 14:43:00,42.2,42.0,29.95,ENE,64,4.0,7.0,99,0.02,,,0.34,weatherlink.com 1.10,2013-01-15 19:43:00,
2013-01-15 14:58:00,41.8,42.0,29.94,ENE,69,5.0,7.0,99,0.02,,,0.34,weatherlink.com 1.10,2013-01-15 19:58:00,
2013-01-15 15:13:00,41.9,42.0,29.94,ENE,74,3.0,7.0,99,0.02,,,0.35,weatherlink.com 1.10,2013-01-15 20:13:00,
2013-01-15 15:28:00,41.7,42.0,29.95,ENE,62,4.0,7.0,99,0.02,,,0.35,weatherlink.com 1.10,2013-01-15 20:28:00,
2013-01-15 15:43:00,41.8,42.0,29.95,ENE,62,5.0,8.0,99,0.02,,,0.36,weatherlink.com 1.10,2013-01-15 20:43:00,
2013-01-15 15:58:00,41.6,41.0,29.95,ENE,68,5.0,7.0,99,0.02,,,0.36,weatherlink.com 1.10,2013-01-15 20:58:00,
2013-01-15 16:13:00,41.3,41.0,29.95,ENE,66,4.0,6.0,99,0.02,,,0.37,weatherlink.com 1.10,2013-01-15 21:13:00,
2013-01-15 16:28:00,41.2,41.0,29.95,ENE,68,7.0,8.0,99,0.02,,,0.37,weatherlink.com 1.10,2013-01-15 21:28:00,
2013-01-15 16:43:00,41.4,41.0,29.94,ENE,71,5.0,9.0,99,0.02,,,0.38,weatherlink.com 1.10,2013-01-15 21:43:00,
2013-01-15 16:58:00,41.4,41.0,29.95,ENE,71,5.0,9.0,99,0.02,,,0.38,weatherlink.com 1.10,2013-01-15 21:58:00,
2013-01-15 17:13:00,41.3,41.0,29.94,NE,55,6.0,9.0,99,0.02,,,0.39,weatherlink.com 1.10,2013-01-15 22:13:00,
2013-01-15 17:28:00,41.4,41.0,29.94,NE,55,5.0,14.0,99,0.02,,,0.39,weatherlink.com 1.10,2013-01-15 22:28:00,
2013-01-15 17:44:00,41.1,41.0,29.94,ENE,60,5.0,8.0,99,0.02,,,0.40,weatherlink.com 1.10,2013-01-15 22:44:00,
2013-01-15 17:59:00,40.4,40.0,29.96,ENE,65,7.0,9.0,99,0.02,,,0.40,weatherlink.com 1.10,2013-01-15 22:59:00,
2013-01-15 18:14:00,40.1,40.0,29.98,ENE,69,3.0,7.0,99,0.01,,,0.40,weatherlink.com 1.10,2013-01-15 23:14:00,
2013-01-15 18:29:00,40.8,41.0,29.97,ESE,109,5.0,8.0,99,0.02,,,0.41,weatherlink.com 1.10,2013-01-15 23:29:00,
2013-01-15 18:44:00,40.7,41.0,29.96,ENE,69,4.0,8.0,99,0.02,,,0.42,weatherlink.com 1.10,2013-01-15 23:44:00,
2013-01-15 18:59:00,40.4,40.0,29.96,ENE,59,4.0,8.0,99,0.02,,,0.42,weatherlink.com 1.10,2013-01-15 23:59:00,
2013-01-15 19:14:00,41.1,41.0,29.97,ENE,65,4.0,6.0,99,0.02,,,0.42,weatherlink.com 1.10,2013-01-16 00:14:00,
2013-01-15 19:29:00,41.1,41.0,29.97,ENE,68,5.0,7.0,99,0.02,,,0.43,weatherlink.com 1.10,2013-01-16 00:29:00,
2013-01-15 19:44:00,41.1,41.0,29.97,ENE,67,5.0,7.0,99,0.01,,,0.43,weatherlink.com 1.10,2013-01-16 00:44:00,
2013-01-15 19:59:00,41.7,42.0,29.96,ENE,67,5.0,8.0,99,0.02,,,0.44,weatherlink.com 1.10,2013-01-16 00:59:00,
2013-01-15 20:14:00,42.9,43.0,29.94,ENE,63,5.0,9.0,99,0.02,,,0.44,weatherlink.com 1.10,2013-01-16 01:14:00,
2013-01-15 20:29:00,42.8,43.0,29.94,NE,49,5.0,10.0,99,0.02,,,0.45,weatherlink.com 1.10,2013-01-16 01:29:00,
2013-01-15 20:44:00,42.1,42.0,29.93,ENE,65,7.0,9.0,99,0.02,,,0.45,weatherlink.com 1.10,2013-01-16 01:44:00,
2013-01-15 20:59:00,41.9,42.0,29.94,ENE,68,5.0,11.0,99,0.02,,,0.46,weatherlink.com 1.10,2013-01-16 01:59:00,
2013-01-15 21:14:00,41.5,41.0,29.93,ENE,59,5.0,9.0,99,0.02,,,0.46,weatherlink.com 1.10,2013-01-16 02:14:00,
2013-01-15 21:29:00,41.8,42.0,29.93,NE,56,6.0,9.0,99,0.02,,,0.47,weatherlink.com 1.10,2013-01-16 02:29:00,
2013-01-15 21:44:00,41.7,42.0,29.93,ENE,63,5.0,8.0,99,0.02,,,0.47,weatherlink.com 1.10,2013-01-16 02:44:00,
2013-01-15 21:59:00,41.4,41.0,29.93,ENE,64,5.0,8.0,99,0.01,,,0.47,weatherlink.com 1.10,2013-01-16 02:59:00,
2013-01-15 22:14:00,41.5,41.0,29.93,ENE,67,4.0,8.0,99,0.02,,,0.48,weatherlink.com 1.10,2013-01-16 03:14:00,
2013-01-15 22:29:00,41.9,42.0,29.93,ENE,70,5.0,7.0,99,0.01,,,0.48,weatherlink.com 1.10,2013-01-16 03:29:00,
2013-01-15 22:44:00,41.9,42.0,29.93,ENE,57,4.0,9.0,99,0.02,,,0.49,weatherlink.com 1.10,2013-01-16 03:44:00,
2013-01-15 22:59:00,42.3,42.0,29.94,NE,46,3.0,8.0,99,0.02,,,0.49,weatherlink.com 1.10,2013-01-16 03:59:00,
2013-01-15 23:14:00,42.7,43.0,29.93,ENE,68,4.0,9.0,99,0.02,,,0.01,weatherlink.com 1.10,2013-01-16 04:14:00,
2013-01-15 23:29:00,42.7,43.0,29.93,ENE,67,4.0,6.0,99,0.02,,,0.01,weatherlink.com 1.10,2013-01-16 04:29:00,
2013-01-15 23:44:00,42.9,43.0,29.92,ENE,67,7.0,9.0,99,0.01,,,0.01,weatherlink.com 1.10,2013-01-16 04:44:00,
2013-01-15 23:59:00,43.1,43.0,29.92,ENE,69,5.0,7.0,99,0.02,,,0.02,weatherlink.com 1.10,2013-01-16 04:59:00,